contact:dominique.lefevre@mio.osupytheas.fr, maurice.libes@osupytheas.fr, didier.mallarino@osupytheas.fr
Project:EMSO http://www.emso-fr.org/EMSO-France
Depth: 2436.0 m
Title:EMSO Ligure Ouest : Data MII capteur MICROCAT
DateTime_Computer,Latitude,Longitude,Temperature,Conductivity,Pressure,DateTime_Instrument
DateTime_Computer,Latitude,Longitude,degC,S m-1,dbar,DateTime_Instrument
2023-08-08T00:00:05Z,42.805,6.029,13.3091,4.60112,2470.8,2023-8-08T02:02:24Z
2023-08-08T00:03:09Z,42.805,6.029,13.3092,4.60112,2470.754,2023-8-08T02:05:27Z
2023-08-08T00:06:12Z,42.805,6.029,13.3103,4.60103,2470.754,2023-8-08T02:08:30Z
2023-08-08T00:09:15Z,42.805,6.029,13.3090,4.60112,2470.74,2023-8-08T02:11:33Z
2023-08-08T00:12:18Z,42.805,6.029,13.3059,4.60106,2470.754,2023-8-08T02:14:36Z
2023-08-08T00:15:21Z,42.805,6.029,13.3084,4.60107,2470.777,2023-8-08T02:17:40Z
2023-08-08T00:18:24Z,42.805,6.029,13.3085,4.60111,2470.8,2023-8-08T02:20:43Z
2023-08-08T00:21:27Z,42.805,6.029,13.3085,4.60113,2470.777,2023-8-08T02:23:46Z
2023-08-08T00:24:30Z,42.805,6.029,13.3078,4.60110,2470.74,2023-8-08T02:26:49Z
2023-08-08T00:27:33Z,42.805,6.029,13.3035,4.60136,2470.777,2023-8-08T02:29:52Z
2023-08-08T00:30:36Z,42.805,6.029,13.3036,4.60110,2470.754,2023-8-08T02:32:55Z
2023-08-08T00:33:39Z,42.805,6.029,13.3036,4.60102,2470.754,2023-8-08T02:35:58Z
2023-08-08T00:36:42Z,42.805,6.029,13.3034,4.60137,2470.73,2023-8-08T02:39:01Z
2023-08-08T00:39:45Z,42.805,6.029,13.3036,4.60151,2470.763,2023-8-08T02:42:04Z
2023-08-08T00:42:49Z,42.805,6.029,13.3031,4.60107,2470.74,2023-8-08T02:45:07Z
2023-08-08T00:45:52Z,42.805,6.029,13.3031,4.60098,2470.73,2023-8-08T02:48:10Z
2023-08-08T00:48:55Z,42.805,6.029,13.3030,4.60099,2470.717,2023-8-08T02:51:13Z
2023-08-08T00:51:58Z,42.805,6.029,13.3031,4.60094,2470.74,2023-8-08T02:54:16Z
2023-08-08T00:55:01Z,42.805,6.029,13.3027,4.60102,2470.74,2023-8-08T02:57:20Z
2023-08-08T00:58:04Z,42.805,6.029,13.3031,4.60095,2470.74,2023-8-08T03:00:23Z
2023-08-08T01:01:07Z,42.805,6.029,13.3032,4.60095,2470.74,2023-8-08T03:03:26Z
2023-08-08T01:04:10Z,42.805,6.029,13.3031,4.60098,2470.754,2023-8-08T03:06:29Z
2023-08-08T01:07:13Z,42.805,6.029,13.3030,4.60097,2470.74,2023-8-08T03:09:32Z
2023-08-08T01:10:16Z,42.805,6.029,13.3029,4.60099,2470.717,2023-8-08T03:12:35Z
2023-08-08T01:13:19Z,42.805,6.029,13.3031,4.60097,2470.74,2023-8-08T03:15:38Z
2023-08-08T01:16:22Z,42.805,6.029,13.3033,4.60097,2470.754,2023-8-08T03:18:41Z
2023-08-08T01:19:25Z,42.805,6.029,13.3029,4.60097,2470.74,2023-8-08T03:21:44Z
2023-08-08T01:22:29Z,42.805,6.029,13.3031,4.60100,2470.74,2023-8-08T03:24:47Z
2023-08-08T01:25:32Z,42.805,6.029,13.3029,4.60095,2470.717,2023-8-08T03:27:50Z
2023-08-08T01:28:35Z,42.805,6.029,13.3031,4.60095,2470.707,2023-8-08T03:30:53Z
2023-08-08T01:31:38Z,42.805,6.029,13.3031,4.60097,2470.73,2023-8-08T03:33:56Z
2023-08-08T01:34:41Z,42.805,6.029,13.3031,4.60098,2470.717,2023-8-08T03:36:59Z
2023-08-08T01:37:44Z,42.805,6.029,13.3029,4.60096,2470.717,2023-8-08T03:40:03Z
2023-08-08T01:40:47Z,42.805,6.029,13.3027,4.60096,2470.73,2023-8-08T03:43:06Z
2023-08-08T01:43:50Z,42.805,6.029,13.3031,4.60097,2470.763,2023-8-08T03:46:09Z
2023-08-08T01:46:53Z,42.805,6.029,13.3031,4.60103,2470.73,2023-8-08T03:49:12Z
2023-08-08T01:49:56Z,42.805,6.029,13.3029,4.60102,2470.717,2023-8-08T03:52:15Z
2023-08-08T01:52:59Z,42.805,6.029,13.3030,4.60104,2470.74,2023-8-08T03:55:18Z
2023-08-08T01:56:02Z,42.805,6.029,13.3034,4.60104,2470.73,2023-8-08T03:58:21Z
2023-08-08T01:59:05Z,42.805,6.029,13.3034,4.60117,2470.73,2023-8-08T04:01:24Z
2023-08-08T02:02:08Z,42.805,6.029,13.3034,4.60104,2470.73,2023-8-08T04:04:27Z
2023-08-08T02:05:12Z,42.805,6.029,13.3034,4.60102,2470.717,2023-8-08T04:07:30Z
2023-08-08T02:08:15Z,42.805,6.029,13.3037,4.60103,2470.707,2023-8-08T04:10:33Z
2023-08-08T02:11:18Z,42.805,6.029,13.3029,4.60102,2470.717,2023-8-08T04:13:36Z
2023-08-08T02:14:21Z,42.805,6.029,13.3032,4.60094,2470.73,2023-8-08T04:16:39Z
2023-08-08T02:17:24Z,42.805,6.029,13.3034,4.60094,2470.693,2023-8-08T04:19:43Z
2023-08-08T02:20:27Z,42.805,6.029,13.3026,4.60092,2470.717,2023-8-08T04:22:46Z
2023-08-08T02:23:30Z,42.805,6.029,13.3029,4.60093,2470.693,2023-8-08T04:25:49Z
2023-08-08T02:26:33Z,42.805,6.029,13.3031,4.60095,2470.707,2023-8-08T04:28:52Z
2023-08-08T02:29:36Z,42.805,6.029,13.3026,4.60095,2470.73,2023-8-08T04:31:55Z
2023-08-08T02:32:39Z,42.805,6.029,13.3029,4.60097,2470.707,2023-8-08T04:34:58Z
2023-08-08T02:35:42Z,42.805,6.029,13.3026,4.60092,2470.707,2023-8-08T04:38:01Z
2023-08-08T02:38:45Z,42.805,6.029,13.3031,4.60095,2470.707,2023-8-08T04:41:04Z
2023-08-08T02:41:48Z,42.805,6.029,13.3031,4.60097,2470.693,2023-8-08T04:44:07Z
2023-08-08T02:44:52Z,42.805,6.029,13.3031,4.60098,2470.707,2023-8-08T04:47:10Z
2023-08-08T02:47:55Z,42.805,6.029,13.3031,4.60099,2470.707,2023-8-08T04:50:13Z
2023-08-08T02:50:58Z,42.805,6.029,13.3029,4.60101,2470.707,2023-8-08T04:53:16Z
2023-08-08T02:54:01Z,42.805,6.029,13.3031,4.60098,2470.684,2023-8-08T04:56:19Z
2023-08-08T02:57:04Z,42.805,6.029,13.3029,4.60097,2470.707,2023-8-08T04:59:23Z
2023-08-08T03:00:07Z,42.805,6.029,13.3030,4.60107,2470.67,2023-8-08T05:02:26Z
2023-08-08T03:03:10Z,42.805,6.029,13.3031,4.60103,2470.684,2023-8-08T05:05:29Z
2023-08-08T03:06:13Z,42.805,6.029,13.3029,4.60097,2470.693,2023-8-08T05:08:32Z
2023-08-08T03:09:16Z,42.805,6.029,13.3034,4.60096,2470.684,2023-8-08T05:11:35Z
2023-08-08T03:12:19Z,42.805,6.029,13.3033,4.60098,2470.684,2023-8-08T05:14:38Z
2023-08-08T03:15:22Z,42.805,6.029,13.3032,4.60097,2470.67,2023-8-08T05:17:41Z
2023-08-08T03:18:25Z,42.805,6.029,13.3027,4.60098,2470.693,2023-8-08T05:20:44Z
2023-08-08T03:21:28Z,42.805,6.029,13.3029,4.60107,2470.67,2023-8-08T05:23:47Z
2023-08-08T03:24:32Z,42.805,6.029,13.3029,4.60102,2470.693,2023-8-08T05:26:50Z
2023-08-08T03:27:35Z,42.805,6.029,13.3031,4.60101,2470.67,2023-8-08T05:29:53Z
2023-08-08T03:30:38Z,42.805,6.029,13.3030,4.60170,2470.67,2023-8-08T05:32:56Z
2023-08-08T03:33:41Z,42.805,6.029,13.3036,4.60148,2470.707,2023-8-08T05:35:59Z
2023-08-08T03:36:44Z,42.805,6.029,13.3036,4.60183,2470.693,2023-8-08T05:39:03Z
2023-08-08T03:39:47Z,42.805,6.029,13.3036,4.60152,2470.707,2023-8-08T05:42:06Z
2023-08-08T03:42:50Z,42.805,6.029,13.3041,4.60121,2470.707,2023-8-08T05:45:09Z
2023-08-08T03:45:53Z,42.805,6.029,13.3040,4.60118,2470.67,2023-8-08T05:48:12Z
2023-08-08T03:48:56Z,42.805,6.029,13.3036,4.60129,2470.707,2023-8-08T05:51:15Z
2023-08-08T03:51:59Z,42.805,6.029,13.3030,4.60122,2470.646,2023-8-08T05:54:18Z
2023-08-08T03:55:02Z,42.805,6.029,13.3035,4.60163,2470.693,2023-8-08T05:57:21Z
2023-08-08T03:58:05Z,42.805,6.029,13.3030,4.60174,2470.67,2023-8-08T06:00:24Z
2023-08-08T04:01:08Z,42.805,6.029,13.3030,4.60126,2470.646,2023-8-08T06:03:27Z
2023-08-08T04:04:11Z,42.805,6.029,13.3029,4.60115,2470.646,2023-8-08T06:06:30Z
2023-08-08T04:07:15Z,42.805,6.029,13.3031,4.60121,2470.684,2023-8-08T06:09:33Z
2023-08-08T04:10:18Z,42.805,6.029,13.3030,4.60149,2470.646,2023-8-08T06:12:36Z
2023-08-08T04:13:21Z,42.805,6.029,13.3032,4.60154,2470.67,2023-8-08T06:15:39Z
2023-08-08T04:16:24Z,42.805,6.029,13.3033,4.60110,2470.684,2023-8-08T06:18:43Z
2023-08-08T04:19:27Z,42.805,6.029,13.3056,4.60110,2470.684,2023-8-08T06:21:46Z
2023-08-08T04:22:30Z,42.805,6.029,13.3188,4.60132,2470.693,2023-8-08T06:24:49Z
2023-08-08T04:25:33Z,42.805,6.029,13.3046,4.60107,2470.684,2023-8-08T06:27:52Z
2023-08-08T04:28:36Z,42.805,6.029,13.3039,4.60107,2470.684,2023-8-08T06:30:55Z
2023-08-08T04:31:40Z,42.805,6.029,13.3036,4.60104,2470.684,2023-8-08T06:33:58Z
2023-08-08T04:34:43Z,42.805,6.029,13.3037,4.60105,2470.67,2023-8-08T06:37:02Z
2023-08-08T04:37:46Z,42.805,6.029,13.3035,4.60110,2470.661,2023-8-08T06:40:05Z
2023-08-08T04:40:49Z,42.805,6.029,13.3077,4.60110,2470.684,2023-8-08T06:43:08Z
2023-08-08T04:43:52Z,42.805,6.029,13.3035,4.60109,2470.684,2023-8-08T06:46:11Z
2023-08-08T04:46:55Z,42.805,6.029,13.3031,4.60109,2470.661,2023-8-08T06:49:14Z
2023-08-08T04:49:58Z,42.805,6.029,13.3231,4.60109,2470.661,2023-8-08T06:52:17Z
2023-08-08T04:53:01Z,42.805,6.029,13.3123,4.60115,2470.661,2023-8-08T06:55:20Z
2023-08-08T04:56:04Z,42.805,6.029,13.3128,4.60119,2470.67,2023-8-08T06:58:23Z
2023-08-08T04:59:07Z,42.805,6.029,13.3057,4.60116,2470.661,2023-8-08T07:01:26Z
2023-08-08T05:02:11Z,42.805,6.029,13.3154,4.60121,2470.67,2023-8-08T07:04:29Z
2023-08-08T05:05:14Z,42.805,6.029,13.3171,4.60107,2470.661,2023-8-08T07:07:32Z
2023-08-08T05:08:17Z,42.805,6.029,13.3136,4.60110,2470.661,2023-8-08T07:10:35Z
2023-08-08T05:11:20Z,42.805,6.029,13.3066,4.60109,2470.646,2023-8-08T07:13:38Z
2023-08-08T05:14:23Z,42.805,6.029,13.3048,4.60114,2470.646,2023-8-08T07:16:42Z
2023-08-08T05:17:26Z,42.805,6.029,13.3131,4.60110,2470.646,2023-8-08T07:19:45Z
2023-08-08T05:20:29Z,42.805,6.029,13.3067,4.60112,2470.646,2023-8-08T07:22:48Z
2023-08-08T05:23:32Z,42.805,6.029,13.3060,4.60115,2470.693,2023-8-08T07:25:51Z
2023-08-08T05:26:35Z,42.805,6.029,13.3048,4.60131,2470.624,2023-8-08T07:28:54Z
2023-08-08T05:29:38Z,42.805,6.029,13.3046,4.60118,2470.646,2023-8-08T07:31:57Z
2023-08-08T05:32:41Z,42.805,6.029,13.3042,4.60111,2470.624,2023-8-08T07:35:00Z
2023-08-08T05:35:44Z,42.805,6.029,13.3036,4.60113,2470.637,2023-8-08T07:38:03Z
2023-08-08T05:38:47Z,42.805,6.029,13.3041,4.60121,2470.624,2023-8-08T07:41:06Z
2023-08-08T05:41:51Z,42.805,6.029,13.3041,4.60122,2470.661,2023-8-08T07:44:09Z
2023-08-08T05:44:54Z,42.805,6.029,13.3043,4.60111,2470.637,2023-8-08T07:47:12Z
2023-08-08T05:47:57Z,42.805,6.029,13.3051,4.60110,2470.637,2023-8-08T07:50:15Z
2023-08-08T05:51:00Z,42.805,6.029,13.3044,4.60130,2470.693,2023-8-08T07:53:18Z
2023-08-08T05:54:03Z,42.805,6.029,13.3040,4.60145,2470.637,2023-8-08T07:56:22Z
2023-08-08T05:57:06Z,42.805,6.029,13.3043,4.60122,2470.637,2023-8-08T07:59:25Z
2023-08-08T06:00:09Z,42.805,6.029,13.3043,4.60113,2470.637,2023-8-08T08:02:28Z
2023-08-08T06:03:12Z,42.805,6.029,13.3048,4.60101,2470.637,2023-8-08T08:05:31Z
2023-08-08T06:06:15Z,42.805,6.029,13.3047,4.60103,2470.637,2023-8-08T08:08:34Z
2023-08-08T06:09:18Z,42.805,6.029,13.3052,4.60100,2470.624,2023-8-08T08:11:37Z
2023-08-08T06:12:21Z,42.805,6.029,13.3046,4.60102,2470.661,2023-8-08T08:14:40Z
2023-08-08T06:15:24Z,42.805,6.029,13.3055,4.60099,2470.646,2023-8-08T08:17:43Z
2023-08-08T06:18:27Z,42.805,6.029,13.3066,4.60100,2470.637,2023-8-08T08:20:46Z
2023-08-08T06:21:31Z,42.805,6.029,13.3057,4.60099,2470.637,2023-8-08T08:23:49Z
2023-08-08T06:24:34Z,42.805,6.029,13.3054,4.60105,2470.6,2023-8-08T08:26:52Z
2023-08-08T06:27:37Z,42.805,6.029,13.3045,4.60112,2470.624,2023-8-08T08:29:55Z
2023-08-08T06:30:40Z,42.805,6.029,13.3048,4.60150,2470.661,2023-8-08T08:32:58Z
2023-08-08T06:33:43Z,42.805,6.029,13.3048,4.60150,2470.661,2023-8-08T08:36:01Z
2023-08-08T06:36:46Z,42.805,6.029,13.3062,4.60126,2470.637,2023-8-08T08:39:04Z
2023-08-08T06:39:49Z,42.805,6.029,13.3063,4.60109,2470.624,2023-8-08T08:42:07Z
2023-08-08T06:42:52Z,42.805,6.029,13.3069,4.60105,2470.646,2023-8-08T08:45:11Z
2023-08-08T06:45:55Z,42.805,6.029,13.3070,4.60101,2470.624,2023-8-08T08:48:14Z
2023-08-08T06:48:58Z,42.805,6.029,13.3069,4.60103,2470.614,2023-8-08T08:51:17Z
2023-08-08T06:52:01Z,42.805,6.029,13.3062,4.60110,2470.684,2023-8-08T08:54:20Z
2023-08-08T06:55:04Z,42.805,6.029,13.3061,4.60136,2470.646,2023-8-08T08:57:23Z
2023-08-08T06:58:07Z,42.805,6.029,13.3063,4.60117,2470.624,2023-8-08T09:00:26Z
2023-08-08T07:01:10Z,42.805,6.029,13.3061,4.60114,2470.646,2023-8-08T09:03:29Z
2023-08-08T07:04:13Z,42.805,6.029,13.3061,4.60145,2470.646,2023-8-08T09:06:32Z
2023-08-08T07:07:16Z,42.805,6.029,13.3054,4.60140,2470.637,2023-8-08T09:09:35Z
2023-08-08T07:10:20Z,42.805,6.029,13.3054,4.60131,2470.624,2023-8-08T09:12:38Z
2023-08-08T07:13:23Z,42.805,6.029,13.3059,4.60127,2470.624,2023-8-08T09:15:41Z
2023-08-08T07:16:26Z,42.805,6.029,13.3066,4.60130,2470.646,2023-8-08T09:18:44Z
2023-08-08T07:19:29Z,42.805,6.029,13.3067,4.60133,2470.646,2023-8-08T09:21:47Z
2023-08-08T07:22:32Z,42.805,6.029,13.3073,4.60135,2470.637,2023-8-08T09:24:51Z
2023-08-08T07:25:35Z,42.805,6.029,13.3078,4.60132,2470.624,2023-8-08T09:27:54Z
2023-08-08T07:28:38Z,42.805,6.029,13.3072,4.60128,2470.614,2023-8-08T09:30:57Z
2023-08-08T07:31:41Z,42.805,6.029,13.3057,4.60120,2470.661,2023-8-08T09:34:00Z
2023-08-08T07:34:44Z,42.805,6.029,13.3058,4.60119,2470.661,2023-8-08T09:37:03Z
2023-08-08T07:37:47Z,42.805,6.029,13.3055,4.60114,2470.646,2023-8-08T09:40:06Z
2023-08-08T07:40:50Z,42.805,6.029,13.3039,4.60125,2470.661,2023-8-08T09:43:09Z
2023-08-08T07:43:53Z,42.805,6.029,13.3040,4.60119,2470.624,2023-8-08T09:46:12Z
2023-08-08T07:46:56Z,42.805,6.029,13.3038,4.60110,2470.637,2023-8-08T09:49:15Z
2023-08-08T07:50:00Z,42.805,6.029,13.3039,4.60110,2470.661,2023-8-08T09:52:18Z
2023-08-08T07:53:03Z,42.805,6.029,13.3036,4.60112,2470.624,2023-8-08T09:55:21Z
2023-08-08T07:56:06Z,42.805,6.029,13.3035,4.60114,2470.661,2023-8-08T09:58:24Z
2023-08-08T07:59:09Z,42.805,6.029,13.3032,4.60114,2470.637,2023-8-08T10:01:27Z
2023-08-08T08:02:12Z,42.805,6.029,13.3032,4.60119,2470.637,2023-8-08T10:04:31Z
2023-08-08T08:05:15Z,42.805,6.029,13.3037,4.60121,2470.661,2023-8-08T10:07:34Z
2023-08-08T08:08:18Z,42.805,6.029,13.3036,4.60140,2470.646,2023-8-08T10:10:37Z
2023-08-08T08:11:21Z,42.805,6.029,13.3043,4.60143,2470.646,2023-8-08T10:13:40Z
2023-08-08T08:14:24Z,42.805,6.029,13.3046,4.60149,2470.67,2023-8-08T10:16:43Z
2023-08-08T08:17:27Z,42.805,6.029,13.3102,4.60126,2470.661,2023-8-08T10:19:46Z
2023-08-08T08:20:30Z,42.805,6.029,13.3076,4.60125,2470.646,2023-8-08T10:22:49Z
2023-08-08T08:23:33Z,42.805,6.029,13.3064,4.60137,2470.661,2023-8-08T10:25:52Z
2023-08-08T08:26:36Z,42.805,6.029,13.3051,4.60149,2470.661,2023-8-08T10:28:55Z
2023-08-08T08:29:40Z,42.805,6.029,13.3045,4.60132,2470.684,2023-8-08T10:31:58Z
2023-08-08T08:32:42Z,42.805,6.029,13.3039,4.60130,2470.684,2023-8-08T10:35:01Z
2023-08-08T08:35:46Z,42.805,6.029,13.3143,4.60121,2470.684,2023-8-08T10:38:04Z
2023-08-08T08:38:49Z,42.805,6.029,13.3066,4.60126,2470.684,2023-8-08T10:41:07Z
2023-08-08T08:41:52Z,42.805,6.029,13.3041,4.60159,2470.661,2023-8-08T10:44:10Z
2023-08-08T08:44:55Z,42.805,6.029,13.3042,4.60106,2470.707,2023-8-08T10:47:13Z
2023-08-08T08:47:58Z,42.805,6.029,13.3043,4.60104,2470.684,2023-8-08T10:50:17Z
2023-08-08T08:51:01Z,42.805,6.029,13.3037,4.60155,2470.693,2023-8-08T10:53:20Z
2023-08-08T08:54:04Z,42.805,6.029,13.3263,4.60108,2470.646,2023-8-08T10:56:23Z
2023-08-08T08:57:07Z,42.805,6.029,13.3086,4.60173,2470.67,2023-8-08T10:59:26Z
2023-08-08T09:00:10Z,42.805,6.029,13.3228,4.60110,2470.707,2023-8-08T11:02:29Z
2023-08-08T09:03:13Z,42.805,6.029,13.3053,4.60109,2470.661,2023-8-08T11:05:32Z
2023-08-08T09:06:16Z,42.805,6.029,13.3246,4.60104,2470.707,2023-8-08T11:08:35Z
2023-08-08T09:09:19Z,42.805,6.029,13.3101,4.60144,2470.73,2023-8-08T11:11:38Z
2023-08-08T09:12:23Z,42.805,6.029,13.3073,4.60119,2470.684,2023-8-08T11:14:41Z
2023-08-08T09:15:26Z,42.805,6.029,13.3069,4.60119,2470.73,2023-8-08T11:17:44Z
2023-08-08T09:18:29Z,42.805,6.029,13.3085,4.60103,2470.693,2023-8-08T11:20:47Z
2023-08-08T09:21:32Z,42.805,6.029,13.3094,4.60102,2470.693,2023-8-08T11:23:50Z
2023-08-08T09:24:35Z,42.805,6.029,13.3096,4.60104,2470.693,2023-8-08T11:26:54Z
2023-08-08T09:27:38Z,42.805,6.029,13.3101,4.60101,2470.717,2023-8-08T11:29:57Z
2023-08-08T09:30:41Z,42.805,6.029,13.3098,4.60103,2470.707,2023-8-08T11:33:00Z
2023-08-08T09:33:44Z,42.805,6.029,13.3095,4.60110,2470.693,2023-8-08T11:36:03Z
2023-08-08T09:36:47Z,42.805,6.029,13.3089,4.60130,2470.707,2023-8-08T11:39:06Z
2023-08-08T09:39:50Z,42.805,6.029,13.3098,4.60143,2470.707,2023-8-08T11:42:09Z
2023-08-08T09:42:53Z,42.805,6.029,13.3098,4.60154,2470.717,2023-8-08T11:45:12Z
2023-08-08T09:45:56Z,42.805,6.029,13.3098,4.60143,2470.693,2023-8-08T11:48:15Z
2023-08-08T09:48:59Z,42.805,6.029,13.3109,4.60156,2470.693,2023-8-08T11:51:18Z
2023-08-08T09:52:03Z,42.805,6.029,13.3082,4.60157,2470.73,2023-8-08T11:54:21Z
2023-08-08T09:55:06Z,42.805,6.029,13.3095,4.60120,2470.717,2023-8-08T11:57:24Z
2023-08-08T09:58:09Z,42.805,6.029,13.3096,4.60131,2470.73,2023-8-08T12:00:27Z
2023-08-08T10:01:12Z,42.805,6.029,13.3102,4.60129,2470.754,2023-8-08T12:03:31Z
2023-08-08T10:04:15Z,42.805,6.029,13.3123,4.60117,2470.717,2023-8-08T12:06:34Z
2023-08-08T10:07:18Z,42.805,6.029,13.3129,4.60132,2470.74,2023-8-08T12:09:37Z
2023-08-08T10:10:21Z,42.805,6.029,13.3132,4.60140,2470.754,2023-8-08T12:12:40Z
2023-08-08T10:13:24Z,42.805,6.029,13.3117,4.60142,2470.754,2023-8-08T12:15:43Z
2023-08-08T10:16:27Z,42.805,6.029,13.3091,4.60139,2470.73,2023-8-08T12:18:46Z
2023-08-08T10:19:30Z,42.805,6.029,13.3113,4.60152,2470.777,2023-8-08T12:21:49Z
2023-08-08T10:22:33Z,42.805,6.029,13.3108,4.60137,2470.754,2023-8-08T12:24:52Z
2023-08-08T10:25:36Z,42.805,6.029,13.3116,4.60117,2470.717,2023-8-08T12:27:55Z
2023-08-08T10:28:40Z,42.805,6.029,13.3114,4.60119,2470.754,2023-8-08T12:30:58Z
2023-08-08T10:31:41Z,42.805,6.029,13.3127,4.60114,2470.777,2023-8-08T12:34:00Z
2023-08-08T10:34:44Z,42.805,6.029,13.3106,4.60117,2470.754,2023-8-08T12:37:03Z
2023-08-08T10:37:47Z,42.805,6.029,13.3093,4.60120,2470.777,2023-8-08T12:40:06Z
2023-08-08T10:40:50Z,42.805,6.029,13.3081,4.60128,2470.763,2023-8-08T12:43:09Z
2023-08-08T10:43:53Z,42.805,6.029,13.3084,4.60144,2470.763,2023-8-08T12:46:12Z
2023-08-08T10:46:56Z,42.805,6.029,13.3084,4.60145,2470.763,2023-8-08T12:49:15Z
2023-08-08T10:50:00Z,42.805,6.029,13.3095,4.60134,2470.73,2023-8-08T12:52:18Z
2023-08-08T10:53:03Z,42.805,6.029,13.3103,4.60127,2470.763,2023-8-08T12:55:21Z
2023-08-08T10:56:06Z,42.805,6.029,13.3101,4.60142,2470.754,2023-8-08T12:58:24Z
2023-08-08T10:59:09Z,42.805,6.029,13.3096,4.60114,2470.754,2023-8-08T13:01:28Z
2023-08-08T11:02:12Z,42.805,6.029,13.3101,4.60115,2470.754,2023-8-08T13:04:31Z
2023-08-08T11:05:15Z,42.805,6.029,13.3075,4.60128,2470.754,2023-8-08T13:07:34Z
2023-08-08T11:08:18Z,42.805,6.029,13.3070,4.60117,2470.74,2023-8-08T13:10:37Z
2023-08-08T11:11:21Z,42.805,6.029,13.3064,4.60131,2470.754,2023-8-08T13:13:40Z
2023-08-08T11:14:24Z,42.805,6.029,13.3086,4.60169,2470.73,2023-8-08T13:16:43Z
2023-08-08T11:17:27Z,42.805,6.029,13.3084,4.60165,2470.73,2023-8-08T13:19:46Z
2023-08-08T11:20:30Z,42.805,6.029,13.3078,4.60157,2470.777,2023-8-08T13:22:49Z
2023-08-08T11:23:33Z,42.805,6.029,13.3082,4.60155,2470.74,2023-8-08T13:25:52Z
2023-08-08T11:26:37Z,42.805,6.029,13.3084,4.60143,2470.754,2023-8-08T13:28:55Z
2023-08-08T11:29:40Z,42.805,6.029,13.3096,4.60135,2470.777,2023-8-08T13:31:58Z
2023-08-08T11:32:43Z,42.805,6.029,13.3109,4.60156,2470.763,2023-8-08T13:35:01Z
2023-08-08T11:35:46Z,42.805,6.029,13.3113,4.60135,2470.754,2023-8-08T13:38:05Z
2023-08-08T11:38:49Z,42.805,6.029,13.3104,4.60131,2470.777,2023-8-08T13:41:08Z
2023-08-08T11:41:52Z,42.805,6.029,13.3106,4.60129,2470.754,2023-8-08T13:44:11Z
2023-08-08T11:44:55Z,42.805,6.029,13.3106,4.60139,2470.74,2023-8-08T13:47:14Z
2023-08-08T11:47:58Z,42.805,6.029,13.3101,4.60137,2470.777,2023-8-08T13:50:17Z
2023-08-08T11:51:01Z,42.805,6.029,13.3103,4.60137,2470.754,2023-8-08T13:53:20Z
2023-08-08T11:54:04Z,42.805,6.029,13.3111,4.60155,2470.74,2023-8-08T13:56:23Z
2023-08-08T11:57:07Z,42.805,6.029,13.3106,4.60160,2470.777,2023-8-08T13:59:26Z
2023-08-08T12:00:10Z,42.805,6.029,13.3106,4.60160,2470.777,2023-8-08T14:02:29Z
2023-08-08T12:03:14Z,42.805,6.029,13.3112,4.60139,2470.754,2023-8-08T14:05:32Z
2023-08-08T12:06:17Z,42.805,6.029,13.3106,4.60161,2470.777,2023-8-08T14:08:35Z
2023-08-08T12:09:20Z,42.805,6.029,13.3104,4.60140,2470.787,2023-8-08T14:11:38Z
2023-08-08T12:12:23Z,42.805,6.029,13.3104,4.60140,2470.763,2023-8-08T14:14:41Z
2023-08-08T12:15:26Z,42.805,6.029,13.3115,4.60150,2470.754,2023-8-08T14:17:45Z
2023-08-08T12:18:29Z,42.805,6.029,13.3100,4.60152,2470.754,2023-8-08T14:20:48Z
2023-08-08T12:21:32Z,42.805,6.029,13.3118,4.60150,2470.763,2023-8-08T14:23:51Z
2023-08-08T12:24:35Z,42.805,6.029,13.3108,4.60131,2470.754,2023-8-08T14:26:54Z
2023-08-08T12:27:38Z,42.805,6.029,13.3107,4.60150,2470.754,2023-8-08T14:29:57Z
2023-08-08T12:30:41Z,42.805,6.029,13.3101,4.60143,2470.754,2023-8-08T14:33:00Z
2023-08-08T12:33:44Z,42.805,6.029,13.3095,4.60155,2470.754,2023-8-08T14:36:03Z
2023-08-08T12:36:47Z,42.805,6.029,13.3098,4.60160,2470.777,2023-8-08T14:39:06Z
2023-08-08T12:39:50Z,42.805,6.029,13.3101,4.60152,2470.754,2023-8-08T14:42:09Z
2023-08-08T12:42:54Z,42.805,6.029,13.3106,4.60152,2470.717,2023-8-08T14:45:12Z
2023-08-08T12:45:57Z,42.805,6.029,13.3108,4.60166,2470.74,2023-8-08T14:48:15Z
2023-08-08T12:49:00Z,42.805,6.029,13.3113,4.60184,2470.777,2023-8-08T14:51:18Z
2023-08-08T12:52:03Z,42.805,6.029,13.3093,4.60194,2470.74,2023-8-08T14:54:22Z
2023-08-08T12:55:06Z,42.805,6.029,13.3079,4.60182,2470.74,2023-8-08T14:57:25Z
2023-08-08T12:58:09Z,42.805,6.029,13.3037,4.60150,2470.777,2023-8-08T15:00:28Z
2023-08-08T13:01:12Z,42.805,6.029,13.3033,4.60185,2470.777,2023-8-08T15:03:31Z
2023-08-08T13:04:15Z,42.805,6.029,13.3037,4.60157,2470.777,2023-8-08T15:06:34Z
2023-08-08T13:07:18Z,42.805,6.029,13.3030,4.60187,2470.777,2023-8-08T15:09:37Z
2023-08-08T13:10:21Z,42.805,6.029,13.3039,4.60155,2470.777,2023-8-08T15:12:40Z
2023-08-08T13:13:24Z,42.805,6.029,13.3036,4.60166,2470.74,2023-8-08T15:15:43Z
2023-08-08T13:16:27Z,42.805,6.029,13.3034,4.60164,2470.73,2023-8-08T15:18:46Z
2023-08-08T13:19:31Z,42.805,6.029,13.3034,4.60167,2470.74,2023-8-08T15:21:49Z
2023-08-08T13:22:34Z,42.805,6.029,13.3034,4.60214,2470.754,2023-8-08T15:24:52Z
2023-08-08T13:25:37Z,42.805,6.029,13.3028,4.60209,2470.754,2023-8-08T15:27:55Z
2023-08-08T13:28:40Z,42.805,6.029,13.3031,4.60208,2470.754,2023-8-08T15:30:58Z
2023-08-08T13:31:43Z,42.805,6.029,13.3034,4.60221,2470.73,2023-8-08T15:34:02Z
2023-08-08T13:34:46Z,42.805,6.029,13.3034,4.60217,2470.754,2023-8-08T15:37:05Z
2023-08-08T13:37:49Z,42.805,6.029,13.3031,4.60226,2470.754,2023-8-08T15:40:08Z
2023-08-08T13:40:52Z,42.805,6.029,13.3036,4.60218,2470.717,2023-8-08T15:43:11Z
2023-08-08T13:43:55Z,42.805,6.029,13.3036,4.60236,2470.717,2023-8-08T15:46:14Z
2023-08-08T13:46:58Z,42.805,6.029,13.3034,4.60196,2470.73,2023-8-08T15:49:17Z
2023-08-08T13:50:01Z,42.805,6.029,13.3032,4.60162,2470.754,2023-8-08T15:52:20Z
2023-08-08T13:53:04Z,42.805,6.029,13.3030,4.60147,2470.73,2023-8-08T15:55:23Z
2023-08-08T13:56:07Z,42.805,6.029,13.3031,4.60138,2470.74,2023-8-08T15:58:26Z
2023-08-08T13:59:11Z,42.805,6.029,13.3032,4.60147,2470.717,2023-8-08T16:01:29Z
2023-08-08T14:02:14Z,42.805,6.029,13.3033,4.60159,2470.74,2023-8-08T16:04:32Z
2023-08-08T14:05:17Z,42.805,6.029,13.3033,4.60149,2470.74,2023-8-08T16:07:35Z
2023-08-08T14:08:20Z,42.805,6.029,13.3035,4.60152,2470.74,2023-8-08T16:10:39Z
2023-08-08T14:11:23Z,42.805,6.029,13.3032,4.60185,2470.74,2023-8-08T16:13:42Z
2023-08-08T14:14:26Z,42.805,6.029,13.3036,4.60157,2470.693,2023-8-08T16:16:45Z
2023-08-08T14:17:29Z,42.805,6.029,13.3034,4.60135,2470.74,2023-8-08T16:19:48Z
2023-08-08T14:20:32Z,42.805,6.029,13.3035,4.60180,2470.74,2023-8-08T16:22:51Z
2023-08-08T14:23:35Z,42.805,6.029,13.3034,4.60178,2470.763,2023-8-08T16:25:54Z
2023-08-08T14:26:38Z,42.805,6.029,13.3031,4.60229,2470.717,2023-8-08T16:28:57Z
2023-08-08T14:29:41Z,42.805,6.029,13.3029,4.60259,2470.74,2023-8-08T16:32:00Z
2023-08-08T14:32:44Z,42.805,6.029,13.3029,4.60173,2470.73,2023-8-08T16:35:02Z
2023-08-08T14:35:47Z,42.805,6.029,13.3031,4.60189,2470.74,2023-8-08T16:38:06Z
2023-08-08T14:38:50Z,42.805,6.029,13.3029,4.60183,2470.717,2023-8-08T16:41:09Z
2023-08-08T14:41:53Z,42.805,6.029,13.3030,4.60196,2470.73,2023-8-08T16:44:12Z
2023-08-08T14:44:56Z,42.805,6.029,13.3031,4.60193,2470.717,2023-8-08T16:47:15Z
2023-08-08T14:47:59Z,42.805,6.029,13.3028,4.60141,2470.754,2023-8-08T16:50:18Z
2023-08-08T14:51:02Z,42.805,6.029,13.3030,4.60161,2470.74,2023-8-08T16:53:21Z
2023-08-08T14:54:05Z,42.805,6.029,13.3029,4.60149,2470.73,2023-8-08T16:56:24Z
2023-08-08T14:57:08Z,42.805,6.029,13.3037,4.60152,2470.74,2023-8-08T16:59:27Z
2023-08-08T15:00:11Z,42.805,6.029,13.3054,4.60178,2470.73,2023-8-08T17:02:30Z
2023-08-08T15:03:15Z,42.805,6.029,13.3073,4.60180,2470.754,2023-8-08T17:05:33Z
2023-08-08T15:06:18Z,42.805,6.029,13.3061,4.60171,2470.777,2023-8-08T17:08:36Z
2023-08-08T15:09:21Z,42.805,6.029,13.3076,4.60168,2470.693,2023-8-08T17:11:39Z